星链-2503 (STARLINK-2503 )

导读

STARLINK-2503是美国太空探索技术公司(SpaceX)于2021年4月7日发射的星链(Starlink)卫星,属于星链V1.0版本,是SpaceX星链全球卫星互联网项目的组成部分。它运行在近地轨道,近地点约355公里、远地点约357公里,轨道倾角约43度,参与组成低轨星座网络,为全球提供高速低延迟互联网服务。

基本信息
目录编号:
48151
目录名称:
STARLINK-2503
国际标识:
2021-027BM
轨道中心:
EARTH
卫星名称:
星链-2503
卫星全名:
星链-2503 (STARLINK-2503 )
卫星状态:
在轨 (已飞行1895 天)
发射日期:
2021-04-07 UTC
国别 :
美国 (US)
星等 :
--
轨道信息
数据来源 国际轨道数据
星历时间: 2026-06-15T07:47:59+0800
5小时前
查看轨道信息
半长轴: 6848.853km
偏心率: 0.0001326
轨道倾角: 53.161°
近地点辐角 103.483°
升交点赤经 60.020°
平近点角 256.632°
近地点: 469.807km
远地点: 471.625km
周期: 94.013分钟
每日圈数: 15.317081
详细信息
固有亮度:
5
最大亮度:
2.5
卫星平台:
Starlink V1.0
覆盖范围:
全球
运营商:
太空探索技术公司
运营商所在国:
美国
制造商(研发单位):
太空探索技术公司
制造商所在国:
美国
使用方式:
暂无
卫星简介
星链(Starlink)计划是由太空探索技术公司(SpaceX)提出的一个巨型低轨卫星互联网星座项目,计划在2019年至2024年间在太空搭建由约1.2万颗卫星组成的“星链”网络,其中1584颗将部署在地球上空550千米处的近地轨道,并从2020年开始工作。该卫星仍在工作。
2D轨道图
3D轨道图
轨道高度分析图
轨道倾角分析图
轨道综合分析图
查看轨道综合分析图